(94352) = 2001 QD169

Discovered at Palomar on 2001-08-26 by NEAT.

Orbit

Orbit type: Main Belt

Note: WebGL enabled browser required.

epoch2024-03-31.0
epoch JD2460400.5
perihelion date2022-04-15.95564
perihelion JD2459685.45564
argument of perihelion (°)324.19510
ascending node (°)132.25784
inclination (°)7.48388
eccentricity0.0965220
perihelion distance (AU)2.0104959
Tisserand w.r.t. Jupiter3.6
ΔV w.r.t. Earth (km/sec)9.1
semimajor axis (AU)2.2252849
mean anomaly (°)212.30410
mean daily motion (°/day)0.29691040
aphelion distance (AU)2.440
period (years)3.32
P-vector [x]-0.11607556
P-vector [y]0.93890452
P-vector [z]0.32401352
Q-vector [x]-0.98855127
Q-vector [y]-0.14086886
Q-vector [z]0.05405876
absolute magnitude16.38
phase slope0.15
uncertainty0
referenceMPEC 2024-E23
observations used1192
oppositions16
arc length (days)8971
first opposition used1998
last opposition used2023
residual rms (arc-secs)0.61
perturbers coarse indicatorM-v
perturbers precise indicator003Ek
first observation date used1998-12-15.0
last observation date used2023-07-08.0
computer nameMPCLINUX
JD of orbit computation2456937.326942
perihelion JD uncertainty (days)1.1803E-04
argument of perihelion uncertainty (°)4.7389E-05
ascending node uncertainty (°)3.4060E-05
inclination uncertainty (°)4.2289E-06
eccentricity uncertainty 2.9087E-08
perihelion distance uncertainty (AU)6.6641E-08
Minimum Orbit Intersection Distances (in AU)
for orbit epoch: 2460400.5, reference: E2024-E23
Mercury1.70279
Venus1.29633
Earth1.03277
Mars0.3974
Jupiter2.67237
Saturn7.03672
Uranus16.2866
Neptune27.6574

Observations

1209 total observations over interval: 1998 12 15.37890 – 2023 07 08.188378
These data are available for download (format description).

Date (UT) J2000 RA J2000 Dec Magn Location Ref
1998 12 15.37890 05 46 25.85 +12 38 52.4 19.0   704 – Lincoln Laboratory ETS, New Mexico MPS 111809
1998 12 15.39388 05 46 24.86 +12 38 53.5 19.1   704 – Lincoln Laboratory ETS, New Mexico MPS 111809
1998 12 15.40869 05 46 23.89 +12 38 56.1 19.2   704 – Lincoln Laboratory ETS, New Mexico MPS 111809
1998 12 15.42355 05 46 22.89 +12 38 58.1 19.1   704 – Lincoln Laboratory ETS, New Mexico MPS 111809
1998 12 15.43841 05 46 21.75 +12 39 02.5 19.1   704 – Lincoln Laboratory ETS, New Mexico MPS 111809
2001 08 26.42241 02 07 40.03 +03 12 28.9 20.4   644 – Palomar Mountain/NEAT MPS 34782
2001 08 26.43322 02 07 40.22 +03 12 26.2 19.8   644 – Palomar Mountain/NEAT MPS 34782
2001 08 26.44392 02 07 40.47 +03 12 23.5 19.8   644 – Palomar Mountain/NEAT MPS 34782
2001 08 27.40093 02 08 02.44 +03 08 37.6 20.0   644 – Palomar Mountain/NEAT MPS 34782
2001 08 27.40212 02 08 02.44 +03 08 37.0 19.5   644 – Palomar Mountain/NEAT MPS 34782
2001 08 27.41204 02 08 02.62 +03 08 35.0 20.2   644 – Palomar Mountain/NEAT MPS 34782
2001 08 27.41316 02 08 02.68 +03 08 34.5 20.1   644 – Palomar Mountain/NEAT MPS 34782
2001 08 27.42264 02 08 02.86 +03 08 32.6 20.2   644 – Palomar Mountain/NEAT MPS 34782
2001 08 27.42378 02 08 02.88 +03 08 31.6 19.9   644 – Palomar Mountain/NEAT MPS 34782
2001 09 16.40374 02 09 25.41 +01 13 46.7 19.3   704 – Lincoln Laboratory ETS, New Mexico MPS 36064
2001 09 16.44536 02 09 24.64 +01 13 30.5 19.3   704 – Lincoln Laboratory ETS, New Mexico MPS 36064
2001 09 16.46498 02 09 24.48 +01 13 18.7 19.8   704 – Lincoln Laboratory ETS, New Mexico MPS 36064
2001 09 16.47994 02 09 24.10 +01 13 14.0 19.8   704 – Lincoln Laboratory ETS, New Mexico MPS 36064
2001 09 17.33528 02 09 11.13 +01 06 55.7 18.6 R 699 – Lowell Observatory-LONEOS MPS 36064
2001 09 17.36277 02 09 10.50 +01 06 43.3   699 – Lowell Observatory-LONEOS MPS 36064
2001 09 17.39035 02 09 10.04 +01 06 29.8   699 – Lowell Observatory-LONEOS MPS 36064
2001 09 17.41796 02 09 09.45 +01 06 17.9   699 – Lowell Observatory-LONEOS MPS 36064
2001 09 25.33912 02 05 59.47 +00 04 03.9 18.8   704 – Lincoln Laboratory ETS, New Mexico MPS 49385
2001 09 25.35392 02 05 58.98 +00 03 57.2 19.3   704 – Lincoln Laboratory ETS, New Mexico MPS 49385
2001 09 25.36897 02 05 58.39 +00 03 49.5 19.0   704 – Lincoln Laboratory ETS, New Mexico MPS 49385
2001 09 25.38368 02 05 57.95 +00 03 41.5 19.2   704 – Lincoln Laboratory ETS, New Mexico MPS 49385
2001 09 25.39928 02 05 57.39 +00 03 35.0 19.0   704 – Lincoln Laboratory ETS, New Mexico MPS 49385
2001 10 15.38200 01 50 46.43 -02 40 50.0 18.6   644 – Palomar Mountain/NEAT MPS 39269
2001 10 15.39257 01 50 45.81 -02 40 54.8 18.7   644 – Palomar Mountain/NEAT MPS 39269
2001 10 15.40300 01 50 45.20 -02 40 59.6 18.7   644 – Palomar Mountain/NEAT MPS 39269
2001 10 16.26407 01 49 57.07 -02 47 25.6 18.9   704 – Lincoln Laboratory ETS, New Mexico MPS 37822
2001 10 16.28062 01 49 56.13 -02 47 33.3 19.5   704 – Lincoln Laboratory ETS, New Mexico MPS 37822
2001 10 16.29843 01 49 55.08 -02 47 41.0 18.9   704 – Lincoln Laboratory ETS, New Mexico MPS 37822
2001 10 16.31441 01 49 54.06 -02 47 47.7 18.9   704 – Lincoln Laboratory ETS, New Mexico MPS 37822
2001 10 16.33098 01 49 53.14 -02 47 56.1 19.0   704 – Lincoln Laboratory ETS, New Mexico MPS 37822
2001 10 20.24965 01 46 09.64 -03 15 45.1 18.9   704 – Lincoln Laboratory ETS, New Mexico MPS 40311
2001 10 20.26611 01 46 08.64 -03 15 51.6 18.9   704 – Lincoln Laboratory ETS, New Mexico MPS 40311
2001 10 20.28256 01 46 07.65 -03 15 58.2 19.1   704 – Lincoln Laboratory ETS, New Mexico MPS 40311
2001 10 20.31552 01 46 05.66 -03 16 12.8 18.9   704 – Lincoln Laboratory ETS, New Mexico MPS 40311
2001 10 23.34319 01 43 11.57 -03 35 39.4 18.8   644 – Palomar Mountain/NEAT MPS 40311
2001 10 23.36434 01 43 10.31 -03 35 47.1 18.6   644 – Palomar Mountain/NEAT MPS 40311
2001 10 23.38546 01 43 09.06 -03 35 54.7 18.5   644 – Palomar Mountain/NEAT MPS 40311
2001 11 20.44187 01 22 17.81 -04 41 46.6 20.1   608 – Haleakala-AMOS MPS 43689
2001 11 20.45255 01 22 17.52 -04 41 45.7 20.0   608 – Haleakala-AMOS MPS 43689
2001 11 20.46368 01 22 17.22 -04 41 44.2 20.8   608 – Haleakala-AMOS MPS 43689
2002 01 08.127090 01 39 04.704 +00 47 22.79 20.33 V 645 – Apache Point-Sloan Digital Sky Survey MPS 111809
2002 01 08.130562 01 39 04.893 +00 47 24.82 21.16   645 – Apache Point-Sloan Digital Sky Survey MPS 111809
2003 03 31.30444 14 15 56.90 -00 45 49.4 18.6   704 – Lincoln Laboratory ETS, New Mexico MPS 78080
2003 03 31.30455 14 15 56.81 -00 45 50.8 18.9   704 – Lincoln Laboratory ETS, New Mexico MPS 78080
2003 03 31.31691 14 15 56.27 -00 45 44.4 19.1   704 – Lincoln Laboratory ETS, New Mexico MPS 78080
2003 03 31.31703 14 15 56.28 -00 45 44.4 19.2   704 – Lincoln Laboratory ETS, New Mexico MPS 78080
2003 03 31.32899 14 15 55.77 -00 45 39.1 19.2   704 – Lincoln Laboratory ETS, New Mexico MPS 78080
2003 03 31.32911 14 15 55.64 -00 45 37.7 19.3   704 – Lincoln Laboratory ETS, New Mexico MPS 78080
2003 03 31.34102 14 15 55.21 -00 45 33.3 19.1   704 – Lincoln Laboratory ETS, New Mexico MPS 78080
2003 03 31.34114 14 15 55.18 -00 45 33.5 19.4   704 – Lincoln Laboratory ETS, New Mexico MPS 78080
2003 04 08.33696 14 09 27.08 +00 16 13.0 19.2   704 – Lincoln Laboratory ETS, New Mexico MPS 78080
2003 04 08.34893 14 09 26.48 +00 16 18.1 19.3   704 – Lincoln Laboratory ETS, New Mexico MPS 78080
2003 04 08.36088 14 09 25.83 +00 16 23.4 19.0   704 – Lincoln Laboratory ETS, New Mexico MPS 78080
2003 04 08.37331 14 09 25.19 +00 16 28.9 19.9   704 – Lincoln Laboratory ETS, New Mexico MPS 78080
2003 04 26.37888 13 52 23.08 +02 11 38.0 20.3   608 – Haleakala-AMOS MPS 78080
2003 04 26.39000 13 52 22.39 +02 11 41.6 20.2   608 – Haleakala-AMOS MPS 78080
2003 04 26.40105 13 52 21.77 +02 11 44.7 20.0   608 – Haleakala-AMOS MPS 78080
2003 04 27.25961 13 51 33.27 +02 15 48.7 18.3   704 – Lincoln Laboratory ETS, New Mexico MPS 78080
2003 04 27.28404 13 51 31.87 +02 15 55.3 18.8   704 – Lincoln Laboratory ETS, New Mexico MPS 78080
2003 04 27.30825 13 51 30.44 +02 16 01.9 19.6   704 – Lincoln Laboratory ETS, New Mexico MPS 78080
2003 04 27.34600 13 51 28.33 +02 16 13.6 19.2 R 699 – Lowell Observatory-LONEOS MPS 78080
2003 04 27.36093 13 51 27.44 +02 16 16.6   699 – Lowell Observatory-LONEOS MPS 78080
2003 04 27.37585 13 51 26.57 +02 16 20.9   699 – Lowell Observatory-LONEOS MPS 78080
2003 04 27.39079 13 51 25.82 +02 16 25.1   699 – Lowell Observatory-LONEOS MPS 78080
2003 04 30.30914 13 48 45.34 +02 29 00.9 20.6   608 – Haleakala-AMOS MPS 78080
2003 04 30.32042 13 48 44.73 +02 29 04.4 20.3   608 – Haleakala-AMOS MPS 78080
2003 04 30.33124 13 48 44.09 +02 29 06.8 20.6   608 – Haleakala-AMOS MPS 78080
2003 05 02.26228 13 47 01.11 +02 36 20.0 18.9   704 – Lincoln Laboratory ETS, New Mexico MPS 78080
2003 05 02.27400 13 47 00.46 +02 36 23.1 19.7   704 – Lincoln Laboratory ETS, New Mexico MPS 78080
2003 05 02.28578 13 46 59.82 +02 36 24.8 18.9   704 – Lincoln Laboratory ETS, New Mexico MPS 78080
2003 05 02.29750 13 46 59.17 +02 36 26.6 19.2   704 – Lincoln Laboratory ETS, New Mexico MPS 78080
2003 05 02.30931 13 46 58.54 +02 36 29.5 19.4   704 – Lincoln Laboratory ETS, New Mexico MPS 78080
2004 08 07.31640 22 51 16.15 -11 18 57.9 19.1   644 – Palomar Mountain/NEAT MPS 110812
2004 08 07.33953 22 51 15.26 -11 19 09.3 19.2   644 – Palomar Mountain/NEAT MPS 110812
2004 08 07.36468 22 51 14.28 -11 19 21.6 19.2   644 – Palomar Mountain/NEAT MPS 110812
2004 08 08.29495 22 50 39.30 -11 27 09.9 19.2   704 – Lincoln Laboratory ETS, New Mexico MPS 111028
2004 08 08.30428 22 50 38.99 -11 27 15.1 19.8   704 – Lincoln Laboratory ETS, New Mexico MPS 111028
2004 08 08.31373 22 50 38.57 -11 27 19.7 19.9   704 – Lincoln Laboratory ETS, New Mexico MPS 111028
2004 08 08.38523 22 50 35.67 -11 27 56.2 19.0 R 699 – Lowell Observatory-LONEOS MPS 111028
2004 08 08.39494 22 50 35.28 -11 27 59.3   699 – Lowell Observatory-LONEOS MPS 111028
2004 08 08.40467 22 50 34.91 -11 28 04.8   699 – Lowell Observatory-LONEOS MPS 111028
2004 08 08.41439 22 50 34.42 -11 28 10.7   699 – Lowell Observatory-LONEOS MPS 111028
2004 08 10.22651 22 49 22.81 -11 43 42.2 19.1   704 – Lincoln Laboratory ETS, New Mexico MPS 111028
